#timestamp,LO_Frequency,Hit,StdDev 
1706824815.4,286047001.5,N
1706824835.2,286047003.8,N
1706824855.0,286047001.6,N
1706824855.9,286047001.6,N
1706824875.8,286047002.7,N
1706824895.6,286046999.9,N
1706824915.5,286047004.4,Y
1706824935.3,286047000.1,P
1706824955.1,286047001.1,N
1706824975.9,286047000.7,N
1706824995.7,286046998.5,N
1706825015.6,286047000.9,N
1706825035.4,286046998.7,N
1706825055.2,286046998.4,N
1706825075.1,286046997.3,N
1706825076.0,286046997.3,N
1706825095.8,286047000.0,N
1706825115.6,286047000.5,N
1706825135.5,286047000.8,N
1706825155.3,286047001.0,N
1706825175.1,286047000.2,N
1706825195.9,286047004.0,N
1706825215.7,286047001.8,N
1706825235.6,286047001.5,N
1706825255.4,286047001.6,N
1706825275.2,286047001.0,N
1706825295.1,286047000.3,N
1706825296.0,286047000.3,N
1706825315.8,286047002.5,N
1706825335.6,286047002.6,N
1706825355.5,286047002.5,N
1706825375.3,286047003.9,N
1706825395.1,286047003.5,N
1706825415.9,286047004.4,N
1706825435.7,286047001.0,N
1706825455.5,286047001.4,N
1706825475.4,286047002.2,N
1706825495.2,286047002.6,N
1706825515.1,286047002.6,N
1706825516.0,286047002.6,N
1706825535.8,286047000.1,N
1706825555.6,286047000.2,N
1706825575.5,286047001.8,N
1706825595.3,286047002.7,N
1706825615.1,286047002.7,N
1706825635.9,286047004.1,N
1706825655.7,286047004.4,Y
1706825675.5,286047001.4,P
1706825695.4,286047002.7,P
1706825715.2,286047002.5,P
1706825735.1,286047000.3,N
1706825736.0,286047000.3,N
1706825755.8,286047000.8,N
1706825775.6,286046998.3,N
1706825795.5,286046999.8,N
1706825815.3,286046998.5,N
1706825835.1,286046999.3,N
1706825855.9,286047000.5,N
1706825875.7,286047002.6,N
1706825895.5,286047002.3,N
1706825915.4,286046999.7,N
1706825935.2,286047002.8,N
1706825955.0,286047001.9,N
1706825956.0,286047001.9,N
1706825975.8,286047004.2,N
1706825995.6,286047003.3,N
1706826015.5,286047003.5,N
1706826035.3,286047004.1,N
1706826055.1,286047000.1,N
1706826075.9,286047002.0,N
1706826095.7,286047002.8,N
1706826115.5,286047002.1,N
1706826135.4,286047002.4,N
1706826155.2,286047001.7,N
1706826175.0,286047002.6,N
1706826175.9,286047002.6,N
1706826195.8,286047002.7,N
1706826215.6,286047002.4,N
1706826235.5,286046999.7,N
1706826255.3,286046998.2,N
1706826275.1,286047000.1,N
1706826295.9,286046999.7,N
1706826315.7,286047002.0,N
1706826335.5,286047000.1,N
1706826355.4,286047002.6,N
1706826375.2,286047002.0,N
1706826395.0,286046999.8,N
1706826395.9,286046999.8,N
1706826415.8,286046999.8,N
1706826435.6,286047002.5,N
1706826455.4,286047001.4,N
1706826475.3,286047004.1,N
1706826495.1,286047005.6,Y
1706826515.9,286047002.4,P
1706826535.7,286047003.8,P
1706826555.5,286047003.7,P
1706826575.4,286047003.0,Y
1706826595.2,286046998.3,P
1706826615.0,286047000.9,N
1706826616.0,286047000.9,N
1706826635.8,286047002.1,N
1706826655.6,286047001.2,N
1706826675.5,286046999.3,N
1706826695.3,286047000.8,N
1706826715.1,286047000.4,N
1706826735.9,286047000.7,N
1706826755.7,286046999.2,N
1706826775.6,286046994.9,Y
1706826795.4,286046996.4,P
1706826815.2,286046993.6,P
1706826835.1,286046995.1,N
1706826836.0,286046995.1,N
1706826855.8,286046995.8,N
1706826875.6,286046995.2,N
1706826895.5,286046993.7,Y
1706826915.3,286046999.3,P
1706826935.1,286046998.8,N
1706826955.9,286047001.1,N
1706826975.7,286047002.6,N
1706826995.6,286047002.8,N
1706827015.4,286047003.8,N
1706827035.2,286047005.2,N
1706827055.1,286047003.0,N
1706827056.0,286047003.0,N
1706827075.8,286047005.6,N
1706827095.6,286047003.0,N
1706827115.5,286047003.3,N
1706827135.3,286047003.5,N
1706827155.1,286047003.7,N
1706827175.9,286047002.3,N
1706827195.7,286047002.3,N
1706827215.6,286047001.6,N
1706827235.4,286047003.5,N
1706827255.2,286047001.3,N
1706827275.1,286047003.5,N
1706827276.0,286047003.5,N
1706827295.8,286047001.7,N
1706827315.6,286047002.1,N
1706827335.5,286047000.2,N
1706827355.3,286047004.3,N
1706827375.1,286047001.8,N
1706827395.9,286047001.8,N
1706827415.7,286047004.0,N
1706827435.5,286047004.1,N
1706827455.4,286047004.4,N
1706827475.2,286047000.2,N
1706827495.1,286047001.3,N
1706827496.0,286047001.3,N
1706827515.8,286047006.0,Y
1706827535.6,286047000.3,P
1706827555.5,286047000.7,N
1706827575.3,286046999.4,N
1706827595.1,286046999.2,N
1706827615.9,286046998.3,N
1706827635.7,286046996.8,N
1706827655.5,286046996.7,N
1706827675.4,286046999.1,N
1706827695.2,286046998.3,N
1706827715.0,286046999.0,N
1706827716.0,286046999.0,N
1706827735.8,286046998.5,N
1706827755.6,286047000.5,N
1706827775.5,286046999.0,N
1706827795.3,286046998.7,N
1706827815.1,286046998.6,N
1706827835.9,286046998.7,N
1706827855.7,286046999.2,N
1706827875.5,286046997.0,N
1706827895.4,286046999.1,N
1706827915.2,286046996.6,N
1706827935.1,286046998.9,N
1706827936.0,286046998.9,N
1706827955.8,286046999.1,N
1706827975.6,286046998.2,N
1706827995.5,286046998.9,N
1706828015.3,286047001.1,N
1706828035.1,286047000.9,N
1706828055.9,286046998.6,N
1706828075.7,286047000.6,N
1706828095.6,286046998.7,N
1706828115.4,286046997.4,N
1706828135.2,286046998.7,N
1706828155.1,286046999.5,N
1706828156.0,286046999.5,N
1706828175.8,286046999.0,N
1706828195.6,286046998.3,N
1706828215.5,286046999.4,N
1706828235.3,286046998.8,N
1706828255.2,286046996.7,Y
1706828275.9,286046998.3,P
1706828295.7,286046998.9,P
1706828315.6,286046998.8,P
1706828335.4,286046999.1,Y
1706828355.2,286047000.4,P
1706828375.1,286047002.3,N
1706828376.0,286047002.3,N
1706828395.8,286046998.4,N
